Time,TemperatureF,DewpointF,PressureIn,WindDirection,WindDirectionDegrees,WindSpeedMPH,WindSpeedGustMPH,Humidity,HourlyPrecipIn,Conditions,Clouds,dailyrainin,SolarRadiationWatts/m^2,SoftwareType,DateUTC
2013-06-13 00:04:00,78.3,73.4,29.74,North,32767,-999.0,0.0,85,0.00,,,0.00,0,Wunderground v.1.15,2013-06-13 04:04:00,
2013-06-13 00:09:00,78.3,73.4,29.74,North,32767,-999.0,0.0,85,0.00,,,0.00,0,Wunderground v.1.15,2013-06-13 04:09:00,
2013-06-13 00:19:00,78.3,73.4,29.74,North,32767,-999.0,0.0,85,0.00,,,0.00,0,Wunderground v.1.15,2013-06-13 04:19:00,
2013-06-13 00:24:00,78.3,73.4,29.74,North,32767,-999.0,0.0,85,0.00,,,0.00,0,Wunderground v.1.15,2013-06-13 04:24:00,
2013-06-13 00:29:00,78.1,73.2,29.74,North,32767,-999.0,0.0,85,0.00,,,0.00,0,Wunderground v.1.15,2013-06-13 04:29:00,
2013-06-13 00:34:00,78.1,73.2,29.74,North,32767,-999.0,0.0,85,0.00,,,0.00,0,Wunderground v.1.15,2013-06-13 04:34:00,
2013-06-13 00:39:00,78.1,73.2,29.74,North,32767,-999.0,0.0,85,0.00,,,0.00,0,Wunderground v.1.15,2013-06-13 04:39:00,
2013-06-13 00:44:00,78.1,73.6,29.74,North,32767,-999.0,0.0,86,0.00,,,0.00,0,Wunderground v.1.15,2013-06-13 04:44:00,
2013-06-13 00:49:00,77.9,73.4,29.73,North,32767,-999.0,0.0,86,0.00,,,0.00,0,Wunderground v.1.15,2013-06-13 04:49:00,
2013-06-13 00:59:00,77.9,73.4,29.73,North,32767,-999.0,0.0,86,0.00,,,0.00,0,Wunderground v.1.15,2013-06-13 04:59:00,
2013-06-13 01:04:00,77.7,73.2,29.73,North,32767,-999.0,0.0,86,0.00,,,0.00,0,Wunderground v.1.15,2013-06-13 05:04:00,
2013-06-13 01:09:00,77.7,73.2,29.73,North,32767,-999.0,0.0,86,0.00,,,0.00,0,Wunderground v.1.15,2013-06-13 05:09:00,
2013-06-13 01:19:00,77.6,73.1,29.72,North,32767,-999.0,0.0,86,0.00,,,0.00,0,Wunderground v.1.15,2013-06-13 05:19:00,
2013-06-13 01:24:00,77.4,73.2,29.72,North,32767,-999.0,0.0,87,0.00,,,0.00,0,Wunderground v.1.15,2013-06-13 05:24:00,
2013-06-13 01:29:00,77.4,73.2,29.72,North,32767,-999.0,0.0,87,0.00,,,0.00,0,Wunderground v.1.15,2013-06-13 05:29:00,
2013-06-13 01:34:00,77.2,73.0,29.72,North,32767,-999.0,0.0,87,0.00,,,0.00,0,Wunderground v.1.15,2013-06-13 05:34:00,
2013-06-13 20:09:00,68.4,67.2,29.58,North,32767,-999.0,0.0,96,0.00,,,0.09,0,Wunderground v.1.15,2013-06-14 00:09:00,
2013-06-13 20:19:00,68.3,67.1,29.58,North,32767,-999.0,0.0,96,0.00,,,0.09,9,Wunderground v.1.15,2013-06-14 00:19:00,
2013-06-13 20:29:00,68.3,67.1,29.58,North,32767,-999.0,0.0,96,0.00,,,0.09,0,Wunderground v.1.15,2013-06-14 00:29:00,
2013-06-13 20:34:00,68.4,67.2,29.58,North,32767,-999.0,0.0,96,0.00,,,0.09,0,Wunderground v.1.15,2013-06-14 00:34:00,
2013-06-13 20:39:00,68.4,67.5,29.58,North,32767,-999.0,0.0,97,0.00,,,0.09,0,Wunderground v.1.15,2013-06-14 00:39:00,
2013-06-13 20:49:00,68.4,67.8,29.57,North,32767,-999.0,0.0,98,0.00,,,0.09,0,Wunderground v.1.15,2013-06-14 00:49:00,
2013-06-13 20:54:00,68.4,67.8,29.57,North,32767,-999.0,0.0,98,0.00,,,0.09,0,Wunderground v.1.15,2013-06-14 00:54:00,
2013-06-13 20:59:00,68.4,67.8,29.57,North,32767,-999.0,0.0,98,0.00,,,0.09,0,Wunderground v.1.15,2013-06-14 00:59:00,
2013-06-13 21:09:00,68.3,67.7,29.57,North,32767,-999.0,0.0,98,0.00,,,0.09,0,Wunderground v.1.15,2013-06-14 01:09:00,
2013-06-13 21:14:00,68.3,68.0,29.57,North,32767,-999.0,0.0,99,0.00,,,0.09,0,Wunderground v.1.15,2013-06-14 01:14:00,
2013-06-13 21:24:00,68.1,68.1,29.56,North,32767,-999.0,0.0,100,0.00,,,0.09,0,Wunderground v.1.15,2013-06-14 01:24:00,
2013-06-13 21:34:00,67.9,67.9,29.56,North,32767,-999.0,0.0,100,0.00,,,0.09,0,Wunderground v.1.15,2013-06-14 01:34:00,
2013-06-13 21:39:00,67.9,67.9,29.56,North,32767,-999.0,0.0,100,0.00,,,0.09,0,Wunderground v.1.15,2013-06-14 01:39:00,
2013-06-13 21:44:00,67.8,67.8,29.56,North,32767,-999.0,0.0,100,0.00,,,0.09,0,Wunderground v.1.15,2013-06-14 01:44:00,
2013-06-13 21:54:00,67.9,67.9,29.57,North,32767,-999.0,0.0,100,0.00,,,0.09,0,Wunderground v.1.15,2013-06-14 01:54:00,
2013-06-13 22:04:00,67.9,67.9,29.58,North,32767,-999.0,0.0,100,0.00,,,0.09,0,Wunderground v.1.15,2013-06-14 02:04:00,
2013-06-13 22:09:00,67.9,67.9,29.58,North,32767,-999.0,0.0,100,0.00,,,0.09,0,Wunderground v.1.15,2013-06-14 02:09:00,
2013-06-13 22:19:00,67.8,67.8,29.58,North,32767,-999.0,0.0,100,0.00,,,0.09,0,Wunderground v.1.15,2013-06-14 02:19:00,
2013-06-13 22:24:00,67.8,67.8,29.58,North,32767,-999.0,0.0,100,0.00,,,0.09,0,Wunderground v.1.15,2013-06-14 02:24:00,
2013-06-13 22:34:00,67.9,67.9,29.59,North,32767,-999.0,0.0,100,0.00,,,0.09,0,Wunderground v.1.15,2013-06-14 02:34:00,
2013-06-13 22:44:00,67.8,67.8,29.59,North,32767,-999.0,0.0,100,0.00,,,0.09,0,Wunderground v.1.15,2013-06-14 02:44:00,
2013-06-13 22:49:00,67.8,67.8,29.59,North,32767,-999.0,0.0,100,0.00,,,0.09,0,Wunderground v.1.15,2013-06-14 02:49:00,
2013-06-13 22:54:00,67.6,67.6,29.59,North,32767,-999.0,0.0,100,0.00,,,0.09,0,Wunderground v.1.15,2013-06-14 02:54:00,
2013-06-13 23:04:00,67.4,67.4,29.59,North,32767,-999.0,0.0,100,0.00,,,0.09,0,Wunderground v.1.15,2013-06-14 03:04:00,
2013-06-13 23:09:00,67.4,67.4,29.59,North,32767,-999.0,0.0,100,0.00,,,0.09,0,Wunderground v.1.15,2013-06-14 03:09:00,
2013-06-13 23:14:00,67.4,67.4,29.59,North,32767,-999.0,0.0,100,0.00,,,0.09,0,Wunderground v.1.15,2013-06-14 03:14:00,
2013-06-13 23:19:00,67.3,67.3,29.60,North,32767,-999.0,0.0,100,0.00,,,0.09,0,Wunderground v.1.15,2013-06-14 03:19:00,
2013-06-13 23:29:00,67.1,67.1,29.60,North,32767,-999.0,0.0,100,0.00,,,0.09,0,Wunderground v.1.15,2013-06-14 03:29:00,
2013-06-13 23:39:00,67.1,67.1,29.61,North,32767,-999.0,0.0,100,0.00,,,0.09,0,Wunderground v.1.15,2013-06-14 03:39:00,
2013-06-13 23:44:00,67.1,67.1,29.61,North,32767,-999.0,0.0,100,0.00,,,0.09,0,Wunderground v.1.15,2013-06-14 03:44:00,
2013-06-13 23:54:00,67.1,67.1,29.61,North,32767,-999.0,0.0,100,0.00,,,0.09,0,Wunderground v.1.15,2013-06-14 03:54:00,
2013-06-13 23:59:00,67.3,67.3,29.61,North,32767,-999.0,0.0,100,0.00,,,0.09,0,Wunderground v.1.15,2013-06-14 03:59:00,